TimeEDT,TemperatureF,Dew PointF,Humidity,Sea Level PressureIn,VisibilityMPH,Wind Direction,Wind SpeedMPH,Gust SpeedMPH,PrecipitationIn,Events,Conditions,WindDirDegrees,DateUTC
12:15 AM,53.6,52.7,97,29.92,3.0,East,3.5,-,N/A,,Overcast,90,2013-05-23 04:15:00
12:35 AM,53.6,52.7,97,29.92,2.5,East,3.5,-,N/A,,Overcast,90,2013-05-23 04:35:00
12:55 AM,53.6,52.3,95,29.92,3.0,East,3.5,-,N/A,,Overcast,100,2013-05-23 04:55:00
1:15 AM,53.6,52.3,95,29.92,4.0,East,3.5,-,N/A,,Overcast,80,2013-05-23 05:15:00
1:35 AM,53.2,52.3,97,29.92,3.0,East,3.5,-,N/A,,Overcast,80,2013-05-23 05:35:00
1:55 AM,53.1,52.2,97,29.90,5.0,East,4.6,-,N/A,,Overcast,90,2013-05-23 05:55:00
2:15 AM,53.1,52.0,96,29.89,10.0,East,3.5,-,N/A,,Overcast,90,2013-05-23 06:15:00
2:35 AM,52.9,52.0,97,29.89,7.0,ENE,3.5,-,N/A,,Overcast,70,2013-05-23 06:35:00
2:55 AM,52.9,51.8,96,29.89,5.0,ENE,3.5,-,N/A,,Overcast,70,2013-05-23 06:55:00
3:15 AM,52.7,51.8,97,29.89,5.0,Calm,Calm,-,N/A,,Overcast,0,2013-05-23 07:15:00
3:35 AM,52.7,51.8,97,29.88,4.0,Calm,Calm,-,N/A,,Overcast,0,2013-05-23 07:35:00
3:55 AM,52.7,51.8,97,29.88,3.0,Calm,Calm,-,N/A,,Overcast,0,2013-05-23 07:55:00
4:15 AM,52.7,51.8,97,29.87,4.0,Calm,Calm,-,N/A,,Overcast,0,2013-05-23 08:15:00
4:35 AM,52.5,51.6,97,29.87,4.0,Calm,Calm,-,N/A,,Overcast,0,2013-05-23 08:35:00
4:55 AM,52.3,51.4,97,29.88,4.0,Calm,Calm,-,N/A,,Overcast,0,2013-05-23 08:55:00
5:15 AM,52.3,51.4,97,29.88,5.0,East,3.5,-,N/A,,Overcast,80,2013-05-23 09:15:00
5:35 AM,52.3,51.4,97,29.88,2.5,East,3.5,-,N/A,,Overcast,80,2013-05-23 09:35:00
5:55 AM,52.3,51.4,97,29.89,3.0,Calm,Calm,-,N/A,,Overcast,0,2013-05-23 09:55:00
6:15 AM,52.5,51.6,97,29.89,4.0,NE,3.5,-,N/A,,Overcast,50,2013-05-23 10:15:00
6:35 AM,52.7,51.8,97,29.90,2.5,Calm,Calm,-,N/A,,Overcast,0,2013-05-23 10:35:00
6:55 AM,52.7,51.8,97,29.90,2.0,Calm,Calm,-,N/A,,Overcast,0,2013-05-23 10:55:00
7:15 AM,52.9,52.0,97,29.90,2.5,ENE,3.5,-,N/A,,Overcast,70,2013-05-23 11:15:00
7:35 AM,52.9,52.0,97,29.90,4.0,East,3.5,-,N/A,,Overcast,80,2013-05-23 11:35:00
7:55 AM,53.4,52.2,95,29.90,3.0,East,3.5,-,N/A,,Overcast,80,2013-05-23 11:55:00
8:15 AM,53.6,52.3,95,29.90,4.0,Calm,Calm,-,N/A,,Overcast,0,2013-05-23 12:15:00
8:35 AM,53.6,52.0,94,29.90,4.0,East,3.5,-,N/A,,Overcast,100,2013-05-23 12:35:00
8:55 AM,54.7,52.9,94,29.89,7.0,Calm,Calm,-,N/A,,Overcast,0,2013-05-23 12:55:00
9:15 AM,54.7,52.3,92,29.89,10.0,Calm,Calm,-,N/A,,Overcast,0,2013-05-23 13:15:00
9:35 AM,55.0,52.7,92,29.89,10.0,Calm,Calm,-,N/A,,Overcast,0,2013-05-23 13:35:00
9:55 AM,55.9,53.1,90,29.88,10.0,Calm,Calm,-,N/A,,Overcast,0,2013-05-23 13:55:00
10:15 AM,57.2,54.0,89,29.88,10.0,Calm,Calm,-,N/A,,Overcast,0,2013-05-23 14:15:00
10:35 AM,58.6,54.9,87,29.88,10.0,Calm,Calm,-,N/A,,Overcast,0,2013-05-23 14:35:00
10:55 AM,59.4,54.9,85,29.87,10.0,Calm,Calm,-,N/A,,Overcast,0,2013-05-23 14:55:00
11:15 AM,59.9,55.4,85,29.86,10.0,East,3.5,-,N/A,,Overcast,100,2013-05-23 15:15:00
11:35 AM,60.4,55.9,85,29.86,10.0,East,3.5,-,N/A,,Overcast,90,2013-05-23 15:35:00
11:55 AM,61.2,56.3,84,29.86,10.0,Calm,Calm,-,N/A,,Overcast,0,2013-05-23 15:55:00
12:15 PM,61.9,57.0,84,29.86,10.0,ESE,3.5,-,N/A,,Overcast,120,2013-05-23 16:15:00
12:35 PM,61.7,57.4,86,29.85,10.0,East,4.6,-,N/A,,Overcast,80,2013-05-23 16:35:00
12:55 PM,62.1,57.2,84,29.84,10.0,Calm,Calm,-,N/A,,Overcast,0,2013-05-23 16:55:00
1:15 PM,63.1,57.9,83,29.84,10.0,ENE,3.5,-,N/A,,Overcast,70,2013-05-23 17:15:00
1:35 PM,63.1,58.5,85,29.83,-9999.0,East,4.6,-,N/A,,Overcast,80,2013-05-23 17:35:00
1:55 PM,62.8,58.6,86,29.83,7.0,NE,3.5,-,0.01,Rain-Thunderstorm,Light Thunderstorms and Rain,50,2013-05-23 17:55:00
2:15 PM,63.5,58.6,84,29.82,10.0,Calm,Calm,-,N/A,,Overcast,0,2013-05-23 18:15:00
2:35 PM,64.4,59.4,84,29.81,10.0,ENE,3.5,-,N/A,,Overcast,70,2013-05-23 18:35:00
2:55 PM,64.4,59.5,84,29.81,10.0,East,4.6,-,N/A,,Overcast,80,2013-05-23 18:55:00
3:15 PM,65.3,60.4,84,29.80,10.0,East,4.6,-,N/A,,Overcast,80,2013-05-23 19:15:00
3:35 PM,65.3,60.6,85,29.81,10.0,ENE,4.6,-,N/A,,Overcast,70,2013-05-23 19:35:00
3:55 PM,64.8,60.8,87,29.81,10.0,ENE,5.8,-,N/A,,Overcast,70,2013-05-23 19:55:00
4:15 PM,64.8,61.2,88,29.81,7.0,East,3.5,-,N/A,Rain,Light Rain,80,2013-05-23 20:15:00
4:35 PM,64.4,61.7,91,29.81,7.0,ESE,4.6,-,N/A,Rain,Light Rain,120,2013-05-23 20:35:00
4:55 PM,64.4,61.7,91,29.79,7.0,NE,4.6,-,N/A,,Light Drizzle,50,2013-05-23 20:55:00
5:15 PM,64.8,62.6,93,29.79,7.0,ENE,6.9,-,N/A,,Overcast,70,2013-05-23 21:15:00
5:35 PM,65.5,63.1,92,29.79,7.0,ENE,4.6,-,N/A,,Overcast,70,2013-05-23 21:35:00
5:55 PM,66.2,63.5,91,29.79,7.0,Calm,Calm,-,N/A,,Mostly Cloudy,0,2013-05-23 21:55:00
6:15 PM,66.2,63.7,92,29.79,7.0,East,3.5,-,N/A,,Overcast,80,2013-05-23 22:15:00
6:35 PM,66.4,63.7,91,29.79,7.0,East,3.5,-,N/A,,Overcast,80,2013-05-23 22:35:00
6:55 PM,66.4,63.7,91,29.78,10.0,East,3.5,-,N/A,,Overcast,100,2013-05-23 22:55:00
7:15 PM,67.1,64.0,90,29.78,10.0,East,4.6,-,N/A,,Overcast,80,2013-05-23 23:15:00
7:35 PM,66.7,64.0,91,29.78,10.0,ENE,4.6,-,N/A,,Overcast,70,2013-05-23 23:35:00
7:55 PM,66.4,64.4,93,29.79,7.0,ENE,3.5,-,N/A,,Overcast,60,2013-05-23 23:55:00
8:15 PM,66.2,64.4,94,29.78,7.0,Calm,Calm,-,N/A,,Light Drizzle,0,2013-05-24 00:15:00
8:35 PM,66.6,64.4,93,29.78,10.0,Calm,Calm,-,N/A,,Overcast,0,2013-05-24 00:35:00
8:55 PM,67.1,63.9,89,29.78,10.0,Calm,Calm,-,N/A,,Light Drizzle,0,2013-05-24 00:55:00
9:15 PM,66.6,63.9,91,29.77,10.0,Calm,Calm,-,0.01,Rain,Light Rain,0,2013-05-24 01:15:00
9:35 PM,66.6,63.7,90,29.77,10.0,ESE,4.6,-,0.01,,Overcast,110,2013-05-24 01:35:00
9:55 PM,66.2,63.5,91,29.77,10.0,East,5.8,-,0.01,,Overcast,80,2013-05-24 01:55:00
10:15 PM,65.5,63.1,92,29.76,10.0,NE,5.8,-,N/A,,Overcast,50,2013-05-24 02:15:00
10:35 PM,65.8,63.5,92,29.77,10.0,Calm,Calm,-,N/A,,Overcast,0,2013-05-24 02:35:00
10:55 PM,65.5,63.5,93,29.77,10.0,Calm,Calm,-,N/A,,Overcast,0,2013-05-24 02:55:00
11:15 PM,65.5,63.1,92,29.76,10.0,ESE,3.5,-,N/A,,Overcast,110,2013-05-24 03:15:00
11:35 PM,65.3,63.0,92,29.76,10.0,East,3.5,-,N/A,,Overcast,80,2013-05-24 03:35:00
11:55 PM,65.3,63.0,92,29.75,10.0,Calm,Calm,-,N/A,,Overcast,0,2013-05-24 03:55:00